Volver al catálogo

STARLINK-4492

ActivoComunicacionesVLEO
NORAD 53410·PAYLOAD·🇺🇸 United States

Lanzado Aug 10, 2022 desde Cape Canaveral Space Force Station

Loading…

Próximos Pases (próximas 24 horas)

TLE

ActualizadoSource: CelesTrak SupGP

Época: Sep 15, 2026, 02:06 UTC

1 53410C 22097Y   26258.08798611  .00237190  00000+0  10947-1 0  2587
2 53410  53.1589 342.4628 0001266  94.4853 300.1785 15.19590308    19

Sigue STARLINK-4492 en tiempo real con AllMySat

Download on the App Store